User: anonymous   Login
Location: Cormont
(50.5693°N, 1.7416°E)
Time: 12:24:04
(UTC+00:00)
Language:

Cosmos 2173 Rocket - Orbit

View from above orbital plane
View from above orbital plane
View from above satellite
View from above satellite

Ground track
Ground track

The orbit data is extracted from the following two-line orbital elements,

1 21797U 91081B   19348.12516024 -.00000002  00000-0 -18136-4 0  9998
2 21797  82.9535 106.4065 0038941  60.1027 113.1462 13.77459397409661
Epoch (UTC): 14 December 2019 03:00:13
Eccentricity: 0.0038941
inclination: 82.9535°
perigee height: 944 km
apogee height: 1001 km
right ascension of ascending node: 106.4065°
argument of perigee: 60.1027°
revolutions per day: 13.77459397
mean anomaly at epoch: 113.1462°
orbit number at epoch: 40966

The dashed part of the orbit path shows where the satellite is in the earth's shadow,  

DLR